| time (UTC) | temp F | wind direction | speed knots | gust knots | rain 1hr in | rain 24hr in | rain mn in | humidity % | barometer mb |
| 20260505041531 | 54 | 270 | 0.0 | 0.0 | 0.00 | 0.00 | 0.00 | 77 | 1008.8 |
| 20260505041032 | 55 | 270 | 1.7 | 0.0 | 0.00 | 0.00 | 0.00 | 77 | 1008.7 |
| 20260505040531 | 55 | 265 | 2.6 | 0.0 | 0.00 | 0.00 | 0.00 | 77 | 1008.8 |
| 20260505040032 | 55 | 257 | 0.0 | 0.0 | 0.00 | 0.00 | 0.00 | 76 | 1008.8 |
| 20260505035531 | 55 | 260 | 0.0 | 0.0 | 0.00 | 0.00 | 0.00 | 76 | 1008.8 |
| 20260505035032 | 55 | 262 | 3.5 | 0.0 | 0.00 | 0.00 | 0.00 | 76 | 1008.8 |
| 20260505034532 | 54 | 265 | 0.0 | 0.0 | 0.00 | 0.00 | 0.00 | 76 | 1008.8 |
| 20260505034032 | 55 | 265 | 0.0 | 0.0 | 0.00 | 0.00 | 0.00 | 75 | 1008.9 |
| 20260505033531 | 55 | 265 | 0.0 | 0.0 | 0.00 | 0.00 | 0.00 | 75 | 1008.9 |
| 20260505033031 | 55 | 265 | 0.0 | 0.0 | 0.00 | 0.00 | 0.00 | 75 | 1009.0 |
| 20260505032531 | 55 | 265 | 3.5 | 0.0 | 0.00 | 0.00 | 0.00 | 74 | 1009.0 |
| 20260505032031 | 55 | 277 | 3.5 | 0.0 | 0.00 | 0.00 | 0.00 | 74 | 1009.0 |
| 20260505031532 | 55 | 310 | 4.3 | 0.0 | 0.00 | 0.00 | 0.00 | 75 | 1009.0 |
| 20260505031031 | 55 | 290 | 4.3 | 0.0 | 0.00 | 0.00 | 0.00 | 75 | 1009.1 |
| 20260505030532 | 55 | 180 | 0.0 | 0.0 | 0.00 | 0.00 | 0.00 | 74 | 1009.2 |
| 20260505030031 | 55 | 170 | 0.0 | 0.0 | 0.00 | 0.00 | 0.00 | 74 | 1009.2 |
| 20260505025532 | 55 | 170 | 0.0 | 0.0 | 0.00 | 0.00 | 0.00 | 74 | 1009.3 |
| 20260505025032 | 55 | 167 | 0.0 | 0.0 | 0.00 | 0.00 | 0.00 | 73 | 1009.3 |
| 20260505024532 | 55 | 167 | 0.0 | 0.0 | 0.00 | 0.00 | 0.00 | 72 | 1009.4 |
| 20260505024032 | 55 | 167 | 0.0 | 0.0 | 0.00 | 0.00 | 0.00 | 73 | 1009.4 |
| 20260505023531 | 55 | 167 | 0.0 | 0.0 | 0.00 | 0.00 | 0.00 | 73 | 1009.4 |
| 20260505023031 | 55 | 167 | 0.0 | 0.0 | 0.00 | 0.00 | 0.00 | 73 | 1009.5 |
| 20260505022532 | 56 | 167 | 0.0 | 0.0 | 0.00 | 0.00 | 0.00 | 73 | 1009.5 |
| 20260505022031 | 56 | 167 | 0.0 | 0.0 | 0.00 | 0.00 | 0.00 | 73 | 1009.6 |
| 20260505021531 | 56 | 167 | 0.0 | 0.0 | 0.00 | 0.00 | 0.00 | 73 | 1009.7 |
| 20260505021031 | 56 | 145 | 0.0 | 0.0 | 0.00 | 0.00 | 0.00 | 72 | 1009.7 |
| 20260505020532 | 56 | 280 | 0.0 | 0.0 | 0.00 | 0.00 | 0.00 | 72 | 1009.8 |
| 20260505020032 | 56 | 280 | 0.0 | 0.0 | 0.00 | 0.00 | 0.00 | 71 | 1009.8 |
| 20260505015531 | 57 | 280 | 0.0 | 0.0 | 0.00 | 0.00 | 0.00 | 71 | 1009.8 |
| 20260505015032 | 57 | 280 | 0.0 | 0.0 | 0.00 | 0.00 | 0.00 | 71 | 1009.8 |
| 20260505014532 | 57 | 280 | 0.0 | 0.0 | 0.00 | 0.00 | 0.00 | 71 | 1009.9 |
| 20260505014031 | 57 | 280 | 0.0 | 0.0 | 0.00 | 0.00 | 0.00 | 71 | 1010.0 |
| 20260505013531 | 57 | 280 | 0.0 | 0.0 | 0.00 | 0.00 | 0.00 | 71 | 1010.0 |
| 20260505013031 | 57 | 280 | 1.7 | 0.0 | 0.00 | 0.00 | 0.00 | 71 | 1010.0 |
| 20260505012531 | 57 | 277 | 2.6 | 0.0 | 0.00 | 0.00 | 0.00 | 70 | 1010.1 |
| 20260505012031 | 57 | 230 | 2.6 | 0.0 | 0.00 | 0.00 | 0.00 | 70 | 1010.1 |
| 20260505011532 | 57 | 152 | 0.0 | 0.0 | 0.00 | 0.00 | 0.00 | 70 | 1010.2 |
| 20260505011031 | 57 | 180 | 3.5 | 0.0 | 0.00 | 0.00 | 0.00 | 70 | 1010.2 |
| 20260505010532 | 58 | 180 | 3.5 | 0.0 | 0.00 | 0.00 | 0.00 | 70 | 1010.3 |
| 20260505010031 | 58 | 220 | 0.0 | 0.0 | 0.00 | 0.00 | 0.00 | 69 | 1010.3 |
| 20260505005532 | 58 | 275 | 0.0 | 0.0 | 0.00 | 0.00 | 0.00 | 68 | 1010.3 |
| 20260505005032 | 58 | 275 | 0.0 | 0.0 | 0.00 | 0.00 | 0.00 | 68 | 1010.3 |
| 20260505004531 | 58 | 275 | 0.0 | 0.0 | 0.00 | 0.00 | 0.00 | 68 | 1010.4 |
| 20260505004032 | 58 | 275 | 0.0 | 0.0 | 0.00 | 0.00 | 0.00 | 68 | 1010.4 |
| 20260505003532 | 58 | 275 | 0.0 | 0.0 | 0.00 | 0.00 | 0.00 | 68 | 1010.5 |
| 20260505003032 | 58 | 260 | 0.0 | 0.0 | 0.00 | 0.00 | 0.00 | 68 | 1010.6 |
| 20260505002531 | 58 | 260 | 0.0 | 0.0 | 0.00 | 0.00 | 0.00 | 68 | 1010.7 |
| 20260505002032 | 59 | 260 | 0.0 | 0.0 | 0.00 | 0.00 | 0.00 | 67 | 1010.7 |
| 20260505001531 | 59 | 260 | 0.0 | 0.0 | 0.00 | 0.00 | 0.00 | 67 | 1010.7 |
| 20260505001031 | 59 | 260 | 0.0 | 0.0 | 0.00 | 0.00 | 0.00 | 67 | 1010.8 |
| 20260505000531 | 59 | 260 | 0.0 | 0.0 | 0.00 | 0.00 | 0.00 | 67 | 1010.8 |
| 20260505000031 | 59 | 260 | 0.0 | 0.0 | 0.00 | 0.00 | 0.00 | 67 | 1010.8 |
| 20260504235531 | 59 | 260 | 0.0 | 0.0 | 0.00 | 0.00 | 0.00 | 67 | 1010.9 |
| 20260504235032 | 59 | 260 | 0.0 | 0.0 | 0.00 | 0.00 | 0.00 | 66 | 1010.9 |
| 20260504234532 | 59 | 260 | 0.0 | 0.0 | 0.00 | 0.00 | 0.00 | 66 | 1010.9 |
| 20260504234031 | 59 | 260 | 0.0 | 0.0 | 0.00 | 0.00 | 0.00 | 66 | 1010.9 |
| 20260504233532 | 59 | 260 | 0.0 | 0.0 | 0.00 | 0.00 | 0.00 | 66 | 1010.9 |
| 20260504233032 | 59 | 260 | 0.0 | 0.0 | 0.00 | 0.00 | 0.00 | 66 | 1010.9 |
| 20260504232532 | 59 | 260 | 0.0 | 0.0 | 0.00 | 0.00 | 0.00 | 66 | 1011.0 |
| 20260504232032 | 59 | 260 | 0.0 | 0.0 | 0.00 | 0.00 | 0.00 | 66 | 1011.0 |
| 20260504231532 | 59 | 260 | 0.0 | 0.0 | 0.00 | 0.00 | 0.00 | 67 | 1011.0 |
| 20260504231031 | 59 | 260 | 0.0 | 0.0 | 0.00 | 0.00 | 0.00 | 67 | 1011.0 |
| 20260504230531 | 58 | 260 | 0.0 | 0.0 | 0.00 | 0.00 | 0.00 | 67 | 1011.0 |
| 20260504230031 | 58 | 260 | 0.0 | 0.0 | 0.00 | 0.00 | 0.00 | 67 | 1010.9 |
| 20260504225531 | 58 | 260 | 0.0 | 0.0 | 0.00 | 0.00 | 0.00 | 68 | 1010.9 |
| 20260504225031 | 58 | 260 | 0.0 | 0.0 | 0.00 | 0.00 | 0.00 | 68 | 1011.0 |
| 20260504224531 | 58 | 260 | 0.0 | 0.0 | 0.00 | 0.00 | 0.00 | 67 | 1011.0 |
| 20260504224031 | 59 | 282 | 2.6 | 0.0 | 0.00 | 0.00 | 0.00 | 67 | 1011.1 |
| 20260504223532 | 59 | 275 | 4.3 | 0.0 | 0.00 | 0.00 | 0.00 | 67 | 1011.1 |
| 20260504223032 | 59 | 95 | 2.6 | 0.0 | 0.00 | 0.00 | 0.00 | 66 | 1011.1 |
| 20260504222532 | 60 | 105 | 0.0 | 0.0 | 0.00 | 0.00 | 0.00 | 65 | 1011.0 |
| 20260504222031 | 62 | 120 | 2.6 | 0.0 | 0.00 | 0.00 | 0.00 | 62 | 1011.0 |
| 20260504221531 | 62 | 115 | 2.6 | 0.0 | 0.00 | 0.00 | 0.00 | 61 | 1011.0 |
| 20260504221031 | 62 | 112 | 2.6 | 0.0 | 0.00 | 0.00 | 0.00 | 61 | 1010.9 |
| 20260504220532 | 62 | 110 | 3.5 | 0.0 | 0.00 | 0.00 | 0.00 | 61 | 1010.8 |
| 20260504220031 | 62 | 110 | 3.5 | 0.0 | 0.00 | 0.00 | 0.00 | 61 | 1010.7 |
| 20260504215531 | 61 | 107 | 3.5 | 0.0 | 0.00 | 0.00 | 0.00 | 62 | 1010.8 |
| 20260504215031 | 61 | 90 | 3.5 | 0.0 | 0.00 | 0.00 | 0.00 | 63 | 1011.0 |
| 20260504214532 | 61 | 105 | 3.5 | 0.0 | 0.00 | 0.00 | 0.00 | 63 | 1011.0 |
| 20260504214031 | 60 | 107 | 3.5 | 0.0 | 0.00 | 0.00 | 0.00 | 64 | 1011.1 |
| 20260504213531 | 60 | 107 | 0.0 | 0.0 | 0.00 | 0.00 | 0.00 | 64 | 1011.2 |
| 20260504213032 | 60 | 107 | 0.0 | 0.0 | 0.00 | 0.00 | 0.00 | 64 | 1011.3 |
| 20260504212532 | 60 | 110 | 0.0 | 0.0 | 0.00 | 0.00 | 0.00 | 64 | 1011.4 |
| 20260504212031 | 60 | 130 | 0.0 | 0.0 | 0.00 | 0.00 | 0.00 | 64 | 1011.5 |
| 20260504211532 | 60 | 130 | 0.0 | 0.0 | 0.00 | 0.00 | 0.00 | 65 | 1011.6 |
| 20260504211031 | 60 | 130 | 0.0 | 0.0 | 0.00 | 0.00 | 0.00 | 64 | 1011.7 |
| 20260504210532 | 60 | 110 | 0.0 | 0.0 | 0.00 | 0.00 | 0.00 | 64 | 1011.6 |
| 20260504210031 | 61 | 105 | 0.0 | 0.0 | 0.00 | 0.00 | 0.00 | 62 | 1011.7 |
| 20260504205532 | 61 | 100 | 0.0 | 0.0 | 0.00 | 0.00 | 0.00 | 61 | 1011.8 |
| 20260504205031 | 61 | 100 | 0.0 | 0.0 | 0.00 | 0.00 | 0.00 | 61 | 1011.7 |
| 20260504204531 | 61 | 100 | 0.0 | 0.0 | 0.00 | 0.00 | 0.00 | 61 | 1011.8 |
| 20260504204032 | 61 | 100 | 0.0 | 0.0 | 0.00 | 0.00 | 0.00 | 60 | 1011.7 |
| 20260504203532 | 61 | 100 | 0.0 | 0.0 | 0.00 | 0.00 | 0.00 | 60 | 1011.8 |
| 20260504203032 | 61 | 100 | 0.0 | 0.0 | 0.00 | 0.00 | 0.00 | 60 | 1011.8 |
| 20260504202532 | 61 | 77 | 0.0 | 0.0 | 0.00 | 0.00 | 0.00 | 61 | 1011.8 |
| 20260504202031 | 62 | 305 | 0.0 | 0.0 | 0.00 | 0.00 | 0.00 | 60 | 1011.8 |
| 20260504201532 | 62 | 305 | 0.0 | 0.0 | 0.00 | 0.00 | 0.00 | 59 | 1011.8 |
| 20260504201031 | 62 | 305 | 0.0 | 0.0 | 0.00 | 0.00 | 0.00 | 58 | 1011.8 |
| 20260504200532 | 62 | 305 | 0.0 | 0.0 | 0.00 | 0.00 | 0.00 | 58 | 1011.8 |
| 20260504200032 | 62 | 305 | 0.0 | 0.0 | 0.00 | 0.00 | 0.00 | 58 | 1011.8 |
| 20260504195532 | 62 | 305 | 0.0 | 0.0 | 0.00 | 0.00 | 0.00 | 58 | 1011.8 |
| 20260504195032 | 62 | 305 | 0.0 | 0.0 | 0.00 | 0.00 | 0.00 | 58 | 1011.7 |
| 20260504194532 | 62 | 305 | 0.0 | 0.0 | 0.00 | 0.00 | 0.00 | 57 | 1011.7 |
| 20260504194032 | 63 | 305 | 0.0 | 0.0 | 0.00 | 0.00 | 0.00 | 57 | 1011.7 |
| 20260504193531 | 63 | 305 | 0.0 | 0.0 | 0.00 | 0.00 | 0.00 | 57 | 1011.7 |
| 20260504193032 | 63 | 305 | 0.0 | 0.0 | 0.00 | 0.00 | 0.00 | 57 | 1011.7 |
| 20260504192532 | 63 | 305 | 0.0 | 0.0 | 0.00 | 0.00 | 0.00 | 57 | 1011.7 |
| 20260504192032 | 63 | 305 | 0.0 | 0.0 | 0.00 | 0.00 | 0.00 | 56 | 1011.7 |
| 20260504191532 | 63 | 305 | 0.0 | 0.0 | 0.00 | 0.00 | 0.00 | 56 | 1011.6 |
| 20260504191031 | 63 | 305 | 0.0 | 0.0 | 0.00 | 0.00 | 0.00 | 56 | 1011.6 |
| 20260504190532 | 64 | 305 | 0.0 | 0.0 | 0.00 | 0.00 | 0.00 | 55 | 1011.6 |
| 20260504190032 | 64 | 305 | 0.0 | 0.0 | 0.00 | 0.00 | 0.00 | 55 | 1011.7 |
| 20260504185532 | 64 | 305 | 0.0 | 0.0 | 0.00 | 0.00 | 0.00 | 55 | 1011.7 |
| 20260504185031 | 64 | 305 | 0.0 | 0.0 | 0.00 | 0.00 | 0.00 | 54 | 1011.6 |
| 20260504184531 | 64 | 305 | 0.0 | 0.0 | 0.00 | 0.00 | 0.00 | 54 | 1011.6 |
| 20260504184032 | 64 | 305 | 0.0 | 0.0 | 0.00 | 0.00 | 0.00 | 53 | 1011.6 |
| 20260504183532 | 65 | 305 | 0.0 | 0.0 | 0.00 | 0.00 | 0.00 | 53 | 1011.6 |
| 20260504183032 | 65 | 305 | 0.0 | 0.0 | 0.00 | 0.00 | 0.00 | 53 | 1011.6 |
| 20260504182532 | 65 | 305 | 0.0 | 0.0 | 0.00 | 0.00 | 0.00 | 52 | 1011.5 |
| 20260504182032 | 65 | 302 | 0.0 | 0.0 | 0.00 | 0.00 | 0.00 | 52 | 1011.5 |
| 20260504181531 | 66 | 302 | 0.0 | 0.0 | 0.00 | 0.00 | 0.00 | 51 | 1011.5 |
| 20260504181032 | 66 | 305 | 0.0 | 0.0 | 0.00 | 0.00 | 0.00 | 51 | 1011.6 |
| 20260504180531 | 67 | 302 | 0.0 | 0.0 | 0.00 | 0.00 | 0.00 | 51 | 1011.6 |
| 20260504180036 | 67 | 302 | 0.0 | 0.0 | 0.00 | 0.00 | 0.00 | 50 | 1011.6 |
| 20260504175531 | 68 | 302 | 0.0 | 0.0 | 0.00 | 0.00 | 0.00 | 49 | 1011.5 |
| 20260504175031 | 69 | 302 | 0.0 | 0.0 | 0.00 | 0.00 | 0.00 | 48 | 1011.5 |
| 20260504174531 | 69 | 300 | 0.0 | 0.0 | 0.00 | 0.00 | 0.00 | 48 | 1011.5 |
| 20260504174031 | 70 | 32 | 0.0 | 0.0 | 0.00 | 0.00 | 0.00 | 47 | 1011.5 |
| 20260504173532 | 70 | 317 | 0.0 | 0.0 | 0.00 | 0.00 | 0.00 | 47 | 1011.5 |
| 20260504173032 | 71 | 320 | 0.0 | 0.0 | 0.00 | 0.00 | 0.00 | 46 | 1011.6 |
| 20260504172531 | 71 | 345 | 0.0 | 0.0 | 0.00 | 0.00 | 0.00 | 46 | 1011.6 |
| 20260504172031 | 71 | 3 | 3.5 | 0.0 | 0.00 | 0.00 | 0.00 | 46 | 1011.6 |
| 20260504171531 | 71 | 355 | 1.7 | 0.0 | 0.00 | 0.00 | 0.00 | 47 | 1011.7 |
| 20260504171031 | 71 | 345 | 2.6 | 0.0 | 0.00 | 0.00 | 0.00 | 46 | 1011.7 |
| 20260504170532 | 71 | 350 | 3.5 | 0.0 | 0.00 | 0.00 | 0.00 | 47 | 1011.8 |
| 20260504151037 | 73 | 320 | 4.3 | 0.0 | 0.00 | 0.00 | 0.00 | 44 | 1012.1 |
| 20260504150532 | 73 | 335 | 4.3 | 0.0 | 0.00 | 0.00 | 0.00 | 45 | 1012.1 |
| 20260504141031 | 74 | 300 | 6.1 | 0.0 | 0.00 | 0.00 | 0.00 | 45 | 1012.2 |
| 20260504140532 | 75 | 315 | 4.3 | 0.0 | 0.00 | 0.00 | 0.00 | 43 | 1012.2 |
| 20260504130532 | 74 | 357 | 4.3 | 0.0 | 0.00 | 0.00 | 0.00 | 44 | 1012.6 |
| 20260504110531 | 74 | 222 | 6.1 | 0.0 | 0.00 | 0.00 | 0.00 | 38 | 1012.8 |
| 20260504100531 | 73 | 180 | 10.4 | 0.0 | 0.00 | 0.00 | 0.00 | 38 | 1013.2 |
| 20260504081532 | 67 | 245 | 3.5 | 0.0 | 0.00 | 0.00 | 0.00 | 46 | 1013.6 |
| 20260504081032 | 67 | 260 | 0.0 | 0.0 | 0.00 | 0.00 | 0.00 | 47 | 1013.5 |
| 20260504080532 | 67 | 260 | 3.5 | 0.0 | 0.00 | 0.00 | 0.00 | 47 | 1013.5 |
| 20260504050532 | 58 | 177 | 3.5 | 0.0 | 0.00 | 0.00 | 0.00 | 59 | 1012.7 |
| 20260504045531 | 58 | 182 | 3.5 | 0.0 | 0.00 | 0.00 | 0.00 | 58 | 1012.6 |